Wind_Speed
22 22 22 21 21 21 20 19 19 19 20 20 20 19 20 20 19 19 19 19 19 18 18 18 19 19 19 20 22 22 20 19 19 19 18 17 16 15 15 15 15 15 15 15 15 15 14 13 12 11 10 11 10 10 9 9 9 9 8 8 7 7 7 7 7 7 6 6 6
23 23 22 22 21 21 20 19 20 20 20 20 20 20 20 20 20 20 20 20 19 19 19 18 19 19 20 21 22 22 21 21 21 21 19 18 17 16 16 16 16 16 16 16 15 15 14 13 12 11 11 11 11 10 10 9 9 10 9 9 8 7 7 7 7 7 7 7 6
24 24 23 23 22 22 21 20 21 21 21 21 20 20 20 20 20 20 20 20 20 20 19 19 19 19 20 22 22 22 22 22 23 22 20 19 18 18 17 17 17 17 16 16 16 15 14 13 12 11 11 11 11 11 10 10 10 10 10 9 8 8 8 7 7 7 7 7 7
25 25 24 24 24 24 23 22 22 23 23 21 21 20 20 20 20 20 20 21 21 21 20 19 19 20 21 22 23 23 23 23 23 22 21 19 19 19 19 18 18 18 17 17 16 15 14 14 12 11 11 11 11 11 11 11 11 11 10 10 9 8 8 8 8 8 8 8 8
26 25 25 25 25 25 24 23 23 23 23 22 21 21 20 20 20 20 20 21 21 21 21 21 20 20 21 22 23 23 23 23 23 22 21 20 20 20 20 20 19 19 18 17 16 16 15 14 12 11 11 11 12 11 11 11 11 11 11 10 9 9 9 9 9 8 8 8 8
26 26 25 25 26 26 25 24 23 24 24 23 22 21 21 20 20 20 20 21 22 22 22 22 21 21 22 23 24 24 24 24 23 22 21 20 20 20 20 20 20 19 19 18 17 16 15 14 12 11 11 12 12 12 12 12 12 11 11 10 10 9 9 9 9 9 9 9 9
27 26 25 25 26 26 25 24 24 24 24 23 23 23 22 22 21 21 21 21 22 22 23 23 23 23 24 25 25 25 25 24 23 22 21 20 20 20 21 20 20 20 19 18 18 17 16 15 12 12 12 12 12 12 12 13 12 12 11 11 10 10 10 10 10 10 10 10 10
26 26 26 25 26 26 26 25 24 24 24 23 23 24 24 22 22 22 22 21 21 22 23 23 24 25 26 27 27 27 26 25 23 22 21 21 21 21 21 20 20 20 19 19 18 18 16 15 13 12 12 12 12 12 13 13 13 13 12 11 11 10 10 10 10 10 10 11 11
26 26 26 26 26 26 26 25 25 25 24 23 22 23 23 22 21 21 21 21 21 22 23 23 25 26 27 28 28 27 26 25 24 23 22 22 22 22 21 21 21 20 20 19 19 18 17 15 13 13 13 13 12 13 14 14 14 13 13 12 11 11 11 11 11 11 11 11 12
26 26 27 26 26 26 26 26 25 26 25 24 22 21 21 21 21 21 21 21 21 22 23 24 25 26 27 28 28 27 25 25 24 24 23 23 23 23 22 22 22 21 20 20 19 19 18 16 14 13 13 13 13 13 14 14 14 14 13 12 11 11 11 12 12 12 12 12 13
26 26 27 27 26 27 27 26 25 25 26 25 23 21 20 21 22 22 22 21 21 21 22 23 25 27 27 27 27 26 25 25 24 24 24 23 23 24 24 23 23 22 21 21 20 19 18 17 15 14 14 14 13 13 13 14 14 14 13 12 12 12 12 13 13 13 13 13 14
26 26 26 26 26 27 27 26 25 25 25 25 24 23 22 23 23 23 22 21 21 21 22 23 25 27 27 26 26 26 25 24 24 24 24 23 24 24 24 23 23 23 22 22 21 20 19 18 16 15 15 14 13 13 13 14 14 14 13 12 12 12 13 14 14 14 14 14 15
26 26 26 26 26 26 27 27 25 25 24 24 24 24 24 24 24 23 22 21 21 21 21 22 24 26 26 26 25 25 24 24 23 23 23 23 24 24 24 24 24 23 23 22 21 20 19 18 17 16 16 15 14 12 12 13 13 13 13 13 13 14 14 15 15 15 15 15 15
26 26 26 26 26 26 27 27 26 24 24 24 24 25 25 25 24 23 21 21 21 21 20 20 23 24 25 25 25 25 24 24 23 23 23 23 24 24 24 24 24 24 23 22 22 21 20 19 18 17 16 15 14 12 12 12 12 12 12 13 14 15 16 16 16 16 16 16 16
26 26 26 26 26 26 26 27 25 25 24 25 25 25 25 24 24 23 21 21 22 21 20 20 21 22 23 24 24 24 24 23 23 23 23 23 24 24 24 24 24 24 23 22 21 21 20 19 18 17 16 15 13 12 12 12 12 12 12 13 15 16 17 17 17 17 17 17 17
27 26 26 26 26 26 26 26 25 24 25 25 26 26 25 24 24 23 22 22 23 22 21 20 21 21 22 22 23 23 23 23 23 23 23 23 23 24 24 23 23 23 23 22 21 20 19 18 17 16 15 13 12 12 12 12 11 11 13 14 16 17 18 18 18 18 18 18 19
27 27 26 26 27 26 26 26 25 24 25 25 26 26 25 24 23 22 23 24 24 23 22 21 20 20 20 21 22 23 23 22 23 23 23 22 23 23 23 23 23 23 22 22 21 20 19 18 16 15 14 13 12 13 12 12 12 13 15 16 17 18 19 18 18 18 19 19 20
27 27 27 27 27 27 27 26 25 25 25 25 25 25 25 25 23 22 23 24 25 24 23 22 20 20 21 21 22 22 22 22 22 22 22 22 22 22 23 22 22 22 22 21 21 20 19 17 16 14 14 13 13 13 13 13 14 15 16 17 18 19 19 19 19 19 19 20 20
27 27 27 27 27 27 27 26 25 25 24 24 25 25 25 25 24 23 23 25 25 25 23 22 21 21 21 22 22 22 22 22 22 22 22 21 22 22 22 22 22 21 21 21 20 20 19 17 16 15 15 15 15 15 15 15 15 16 16 17 18 19 19 19 19 20 20 20 21
26 26 27 27 27 27 26 26 25 24 24 23 24 24 24 24 23 23 23 25 26 25 24 23 21 21 21 22 22 22 22 21 21 21 21 21 21 21 21 21 21 21 21 20 20 20 19 18 17 17 17 18 17 17 17 16 15 15 16 17 18 19 19 19 20 20 21 21 22
26 26 26 26 26 25 25 25 24 24 23 23 23 23 23 23 23 23 23 24 25 25 24 23 22 21 21 22 22 22 22 21 21 21 21 20 20 21 21 21 21 21 21 21 20 19 19 19 18 19 20 20 20 20 18 16 15 16 16 17 18 19 19 19 20 20 21 21 22
25 25 25 24 24 24 24 24 23 23 23 22 22 22 22 23 23 23 22 22 23 24 24 23 22 22 22 22 23 23 23 21 21 21 20 20 20 20 20 20 21 21 21 20 20 20 20 19 20 20 21 22 23 22 19 16 16 16 17 18 19 19 19 20 20 20 21 22 22
23 23 23 23 23 23 23 23 23 23 23 22 22 21 22 22 22 22 22 22 22 23 24 23 23 23 23 23 24 24 24 22 22 21 21 20 20 20 20 20 21 21 21 21 22 21 21 20 21 22 23 23 24 23 21 18 18 17 18 18 19 19 19 20 20 20 21 21 22
22 22 22 22 22 22 22 22 23 23 23 22 21 21 21 22 22 22 21 22 22 23 24 24 24 24 24 25 25 25 25 24 23 23 22 21 20 20 20 19 21 22 23 24 24 24 22 22 22 23 23 23 24 24 23 21 19 18 18 18 19 19 19 19 19 20 20 21 21
21 21 21 21 21 21 22 22 22 22 22 22 21 21 21 21 22 22 22 22 23 24 25 25 25 25 26 26 26 26 26 26 25 25 24 23 23 24 24 24 25 26 27 27 26 25 24 23 24 24 24 23 24 25 24 22 21 20 19 19 19 18 19 19 19 20 20 21 21
20 20 20 20 20 21 21 22 22 22 22 21 21 21 21 21 22 22 23 24 24 25 26 26 26 26 27 27 28 28 28 28 29 29 29 29 30 31 32 32 31 31 30 29 27 25 24 25 27 27 26 24 24 23 23 22 21 20 19 19 18 18 18 18 19 20 20 21 21
19 20 20 20 20 20 20 21 21 21 21 21 21 21 21 21 22 23 24 24 25 25 26 26 25 26 27 28 29 30 31 31 32 33 34 35 36 36 36 35 33 32 31 29 27 25 26 28 30 30 28 26 24 23 23 22 21 20 19 18 17 17 18 18 19 20 21 21 22
19 19 19 19 19 19 19 20 20 20 21 21 21 21 21 22 22 23 24 24 24 24 24 24 24 26 28 28 30 31 32 33 34 34 35 35 35 35 35 33 31 30 30 28 26 26 28 31 33 32 30 28 25 23 23 23 22 20 18 17 17 17 18 19 20 20 21 21 21
18 18 18 18 18 18 18 19 19 20 20 21 21 21 22 22 22 22 22 22 22 23 23 23 25 26 28 28 28 29 30 31 30 30 29 29 29 30 31 28 26 25 25 26 26 27 30 33 34 33 32 29 26 24 23 23 22 19 17 17 17 17 18 19 20 20 20 21 21
17 17 17 17 17 17 18 18 19 19 19 19 20 20 20 20 20 21 21 21 22 23 24 25 26 27 27 26 26 25 25 25 25 25 25 25 25 26 26 25 24 22 23 25 26 29 32 34 35 34 32 30 29 26 24 23 21 19 17 17 17 18 19 19 20 20 21 21 21
17 16 16 16 16 17 16 15 15 15 16 16 16 17 17 18 20 21 21 21 22 24 25 25 27 27 26 25 23 22 22 22 22 23 24 24 24 24 24 23 22 22 22 25 27 30 32 34 35 34 32 31 31 29 26 24 21 19 18 18 19 19 19 20 20 21 21 22 22
16 15 15 15 15 14 12 11 12 14 16 16 15 16 17 19 20 20 21 21 22 22 22 22 24 24 23 22 21 21 21 22 23 24 24 24 24 23 23 23 21 22 24 26 28 30 32 34 34 33 32 32 33 33 31 26 23 20 19 20 20 21 21 21 21 22 23 23 24
15 14 14 14 12 10 10 11 13 15 16 16 16 16 17 18 18 19 19 20 20 21 21 20 21 21 21 20 20 20 21 22 23 24 24 24 23 23 22 22 20 21 24 25 27 29 31 32 33 32 31 32 33 34 33 29 24 21 20 21 22 22 22 22 22 23 24 24 25
14 13 13 12 11 11 11 12 12 14 15 15 15 15 16 17 17 17 17 18 18 19 20 19 19 19 19 19 19 20 20 21 22 23 23 23 22 22 22 21 19 19 22 23 25 27 29 30 30 30 31 32 33 33 32 28 25 23 22 23 23 23 23 23 24 24 25 25 26
13 13 13 13 12 12 12 12 12 13 13 14 14 14 15 16 16 16 16 16 17 17 17 17 17 17 18 18 19 19 20 20 21 21 22 22 21 21 21 20 18 18 20 22 24 26 27 28 28 29 30 31 32 32 30 27 24 23 23 24 24 24 24 24 24 25 26 26 27
13 13 13 13 13 12 12 12 12 12 13 13 13 14 15 15 16 16 16 16 15 15 16 16 16 17 17 17 18 19 20 20 20 21 21 21 20 20 20 20 17 17 18 20 22 24 25 26 27 28 30 31 31 30 28 25 23 23 24 24 25 25 25 25 25 26 26 27 27
14 14 14 14 13 13 12 13 13 13 14 14 14 15 15 15 15 15 15 15 16 16 16 17 17 17 18 18 18 18 19 20 20 20 20 20 19 18 18 18 17 17 17 19 20 22 23 25 26 27 28 29 29 28 25 23 23 22 23 24 24 24 24 24 25 26 27 27 27
14 14 14 14 13 13 13 13 13 14 14 14 14 15 15 15 14 15 15 15 16 16 16 17 17 17 17 17 17 17 18 18 19 19 18 18 17 17 17 18 17 17 17 18 19 21 22 24 25 27 28 29 29 27 24 23 23 22 22 22 22 23 23 24 24 25 25 26 27
14 14 14 13 13 13 13 13 13 14 14 14 14 14 14 14 14 14 15 15 15 16 16 16 16 16 16 16 16 16 16 17 17 17 17 16 16 16 16 17 17 16 17 18 18 20 21 23 25 26 28 30 30 27 24 22 22 22 22 22 22 22 23 23 24 24 25 25 26
14 13 13 12 12 12 12 13 13 13 13 13 13 13 13 13 13 13 14 14 14 14 14 14 14 14 14 15 15 15 15 15 15 15 15 15 16 16 16 17 16 16 16 17 18 19 20 22 24 27 29 31 30 27 23 22 21 21 22 22 22 22 22 23 23 23 23 24 25
13 13 12 12 11 11 12 12 12 12 12 12 12 12 12 12 12 12 12 13 13 12 12 12 12 13 13 13 13 14 14 14 14 14 14 14 15 15 16 16 16 16 16 17 17 19 21 23 26 27 29 29 29 26 23 21 21 22 22 22 22 21 22 22 22 22 22 23 23
Wind_Direction
189 187 185 184 185 185 186 187 188 188 188 188 187 186 185 185 185 185 186 186 187 188 188 189 190 190 189 187 186 185 184 183 181 180 181 183 185 186 184 181 179 176 174 172 169 168 167 166 163 161 161 163 164 164 165 167 169 171 172 172 172 174 178 181 182 183 186 189 189
190 188 185 184 184 185 186 186 188 189 189 190 189 188 187 187 186 186 186 187 188 189 189 190 191 190 189 187 185 184 184 182 182 181 181 183 185 185 182 181 179 177 175 173 170 170 169 167 164 162 163 165 166 167 168 170 171 173 173 173 173 176 181 185 187 189 191 195 194
192 189 186 185 185 186 187 188 188 189 190 191 191 190 189 188 187 187 187 188 189 189 189 190 191 190 188 186 185 184 184 183 182 181 181 183 184 184 182 180 179 177 176 174 173 172 170 169 166 165 166 168 168 169 171 173 174 175 175 176 175 178 182 187 189 191 194 198 199
194 191 189 187 187 188 189 191 191 191 191 191 191 191 190 189 189 188 188 188 188 188 189 189 189 188 187 186 185 184 184 185 183 181 181 183 184 183 181 179 178 178 176 175 174 174 172 170 168 168 169 170 171 171 173 174 176 177 178 179 179 181 184 188 190 193 197 201 202
195 194 191 189 189 190 191 193 192 191 191 191 191 191 191 191 190 189 189 188 188 188 189 188 187 187 186 185 184 184 185 185 184 182 182 183 184 183 181 179 178 178 177 176 176 175 173 171 171 171 172 173 174 175 175 175 177 178 180 181 183 185 187 190 192 195 199 203 204
196 195 193 191 191 191 193 194 193 192 191 191 191 191 191 191 191 190 189 189 189 188 187 186 185 185 185 184 184 185 185 185 184 183 183 184 184 183 181 179 178 177 177 177 177 176 175 174 173 174 175 176 177 178 178 177 179 181 182 184 186 188 190 192 194 197 201 205 206
197 196 195 193 192 193 194 194 194 193 192 193 193 193 192 192 193 192 191 189 188 187 186 186 185 185 184 184 184 185 185 185 184 183 183 184 184 183 182 180 178 178 178 178 178 177 177 177 177 177 177 178 179 180 180 180 182 184 186 187 188 190 193 195 197 200 204 208 209
198 197 196 195 193 194 195 194 194 194 194 195 196 195 195 196 195 194 192 190 188 187 187 186 186 186 185 184 185 185 185 184 183 183 183 184 184 183 182 181 179 179 179 179 179 179 180 180 180 180 180 180 182 183 183 184 186 188 189 190 191 192 195 198 201 204 207 210 212
199 199 198 196 194 194 195 195 194 194 196 199 200 200 199 198 197 195 194 193 192 190 189 188 187 186 186 186 185 185 184 183 183 183 183 184 183 182 182 182 181 181 180 180 181 181 182 183 183 183 182 183 184 184 185 187 189 191 193 194 194 195 197 201 204 208 211 213 214
199 199 198 197 196 196 196 196 195 194 195 200 204 205 202 200 198 196 196 196 196 193 192 190 188 186 186 186 186 184 183 183 183 183 183 183 183 182 181 182 182 182 182 182 183 183 184 185 186 186 185 185 186 186 186 189 192 195 197 198 199 201 203 206 209 212 215 216 217
200 199 198 198 197 196 196 196 197 196 196 198 203 206 206 202 199 198 198 198 198 196 193 192 190 188 186 186 186 185 183 183 183 183 184 184 183 182 182 182 183 183 183 183 183 184 186 188 189 188 187 186 187 187 188 191 195 199 202 204 206 208 211 213 215 217 219 220 220
201 200 199 199 197 197 196 197 198 198 197 197 199 203 205 203 202 201 200 201 200 198 196 195 192 190 188 187 186 185 184 183 183 184 184 184 184 183 183 184 184 184 184 184 184 185 187 189 190 190 188 186 187 188 190 193 198 202 206 211 214 217 219 220 221 222 224 225 224
202 201 201 200 198 197 197 198 199 199 198 198 199 201 202 203 202 202 202 203 202 201 198 196 194 192 189 187 186 185 184 184 184 184 185 185 184 184 184 185 185 186 185 185 185 186 188 190 191 191 189 186 186 188 191 196 200 205 210 216 221 225 227 228 228 228 229 230 230
202 202 201 201 199 198 198 198 199 199 198 198 198 199 200 200 200 201 204 205 205 203 199 195 194 193 191 189 188 186 186 185 185 185 186 186 185 185 185 186 187 187 186 186 186 187 188 190 191 191 190 187 185 187 192 198 203 208 214 221 227 231 234 235 234 234 234 234 235
203 202 202 201 199 198 198 198 199 199 198 197 197 198 198 198 198 201 205 208 207 204 200 196 194 194 194 192 189 188 187 187 187 187 187 187 186 186 187 187 188 188 187 187 187 188 189 190 191 191 189 186 185 189 195 201 206 212 220 227 233 236 239 240 239 239 238 238 238
202 202 202 201 199 199 199 198 199 199 198 196 196 197 198 198 198 201 205 208 207 204 201 198 196 195 194 193 191 189 189 188 189 189 189 188 188 188 188 189 189 189 188 187 187 188 189 190 191 190 188 186 188 194 200 203 207 215 224 232 237 240 242 243 243 243 242 242 242
202 202 202 201 200 199 199 199 199 199 198 196 196 197 199 200 199 200 203 205 204 203 202 200 196 193 192 192 192 192 191 190 191 192 192 191 189 189 190 191 191 190 189 188 187 187 189 189 188 186 185 188 195 201 204 203 208 217 227 235 240 243 245 246 247 247 247 246 246
202 202 202 201 201 200 200 200 200 200 199 197 197 198 200 201 200 200 202 203 202 202 201 200 197 195 193 193 193 193 193 193 194 194 194 194 192 191 191 192 191 190 190 188 186 186 186 185 182 182 186 194 201 204 205 206 215 224 231 238 242 246 248 249 250 250 251 250 251
203 203 203 202 202 202 202 201 201 201 201 199 199 200 201 202 201 201 201 200 200 201 200 199 198 196 195 194 193 194 194 195 195 196 196 196 195 194 193 192 192 191 190 188 187 185 183 181 180 184 192 199 203 205 208 215 226 234 238 242 245 248 249 251 252 252 253 253 253
204 205 205 205 205 204 203 203 202 201 201 200 200 200 201 201 201 200 199 198 198 198 198 198 196 195 195 194 193 194 195 196 196 197 197 197 196 195 194 193 191 190 189 189 187 184 181 181 185 191 197 202 205 207 212 223 237 244 245 246 248 250 251 252 254 254 255 255 255
206 207 208 208 207 206 205 204 203 202 201 200 201 200 200 200 201 200 198 197 196 196 196 196 196 195 194 193 193 193 194 195 196 196 196 196 196 196 195 193 190 190 190 189 186 182 183 187 193 197 201 204 207 210 216 229 243 249 249 249 250 251 252 254 255 256 256 256 257
208 209 210 210 209 208 207 206 205 203 202 201 201 201 200 199 199 199 197 195 194 195 195 196 196 194 194 193 193 192 193 193 193 193 194 195 196 196 195 192 190 191 191 189 186 186 190 196 199 201 202 204 207 211 218 231 245 250 251 251 251 252 253 255 256 257 258 258 258
209 210 211 211 211 210 208 206 205 204 203 202 202 200 199 198 197 196 194 193 194 194 195 196 196 195 194 193 192 191 190 188 188 188 190 191 193 194 194 193 193 192 190 189 190 193 198 202 203 203 203 203 206 211 219 232 243 249 251 252 253 254 255 256 257 258 259 259 260
210 211 211 212 211 210 209 207 205 204 203 203 202 201 199 196 195 193 192 192 193 194 195 196 197 196 194 193 191 189 187 185 184 185 187 188 190 192 193 192 192 193 193 194 198 202 205 204 203 202 202 201 205 211 220 231 240 247 251 254 255 255 257 258 259 260 260 261 262
211 211 212 212 211 210 209 207 205 204 203 203 203 201 199 196 195 193 193 194 194 195 196 197 197 195 193 191 189 187 185 183 182 183 183 183 185 188 192 194 196 197 199 201 205 209 210 205 201 199 198 199 205 212 221 230 239 246 250 253 255 257 258 260 261 261 262 264 265
211 211 212 212 211 210 209 207 206 205 204 204 203 202 199 198 197 196 196 196 196 196 196 196 195 192 190 187 186 185 184 183 182 182 182 183 185 189 192 195 198 200 202 206 211 213 211 206 202 199 198 199 205 212 221 230 238 244 248 251 254 256 258 260 261 262 263 265 266
211 211 212 212 211 211 209 208 206 205 204 204 203 202 201 200 199 199 199 199 198 197 195 194 191 188 187 185 184 184 185 185 185 185 186 188 189 190 192 195 197 200 204 209 214 214 209 206 204 203 201 203 207 213 222 230 237 242 246 249 252 255 257 259 262 263 265 266 267
209 210 211 211 211 211 210 208 206 205 204 204 204 203 202 202 202 201 200 199 196 193 190 187 186 185 184 184 185 186 187 187 188 189 190 191 192 192 193 195 197 201 206 212 215 212 208 207 205 205 206 208 210 215 223 230 236 240 244 248 252 254 257 259 261 263 265 266 267
208 208 209 210 211 211 211 209 208 207 206 205 205 205 205 205 203 201 197 192 187 183 181 181 181 182 182 183 185 187 189 190 191 191 192 192 193 194 195 196 199 203 208 214 214 211 208 208 206 206 208 210 212 217 223 229 234 238 243 247 251 254 256 259 261 263 265 267 268
206 206 207 209 210 211 212 212 212 209 206 204 204 204 204 201 196 190 184 180 177 176 177 179 180 181 183 185 187 189 190 192 193 193 193 194 196 198 199 200 202 206 212 215 214 211 209 209 209 209 211 213 215 219 223 228 233 237 243 248 252 255 257 259 261 263 265 267 269
204 204 205 207 209 212 213 212 205 197 190 188 189 191 189 183 179 176 173 172 172 175 178 180 182 184 186 188 190 192 194 195 196 196 197 198 200 201 203 205 207 211 216 217 215 212 211 211 211 212 214 216 218 221 223 228 233 238 244 249 253 255 257 259 262 264 265 267 269
203 203 204 206 208 207 201 188 178 174 173 172 171 171 171 169 169 169 169 171 173 176 179 182 184 186 189 191 193 196 197 197 198 198 199 200 201 203 205 206 211 217 220 219 216 214 213 213 213 214 216 218 220 223 225 230 235 241 247 251 254 256 257 259 262 264 266 267 268
202 203 204 203 196 179 163 161 166 169 169 168 167 166 166 166 167 168 170 174 177 179 182 184 188 190 193 194 197 198 199 199 200 201 201 202 203 205 207 207 211 218 221 220 217 215 215 216 216 216 216 218 221 224 227 232 239 245 250 252 254 256 257 259 262 264 266 267 268
201 201 199 190 171 154 150 157 163 166 167 166 166 167 169 169 169 171 174 178 181 185 188 190 193 195 198 200 200 200 201 203 204 204 203 203 204 206 208 208 210 217 220 218 215 215 216 217 217 216 215 216 220 225 229 236 242 247 251 253 255 256 258 260 262 264 266 267 268
194 191 185 176 164 157 156 158 161 164 166 167 169 172 175 176 176 177 179 181 184 188 193 197 199 202 204 205 206 205 204 204 204 204 205 205 205 206 207 208 208 214 218 216 215 215 217 218 217 215 213 215 220 226 233 239 244 248 251 254 255 257 259 261 264 265 267 268 268
183 179 175 173 170 168 167 170 172 175 177 181 182 185 186 183 183 183 184 186 188 193 198 203 206 208 208 209 209 208 207 205 205 205 206 206 206 206 206 206 206 212 217 217 217 217 217 216 214 212 213 217 223 230 236 241 245 249 252 254 256 258 260 263 265 267 268 268 268
176 174 174 177 180 181 182 185 186 187 189 189 189 189 189 189 190 191 191 193 197 201 206 210 211 211 211 212 210 209 208 207 205 205 205 205 204 204 204 203 204 211 219 220 219 217 215 213 211 212 215 221 227 233 237 242 246 249 252 255 257 259 262 265 267 268 268 267 266
176 177 179 182 187 189 188 186 186 186 187 186 188 189 190 193 196 197 197 198 202 207 212 214 214 213 212 211 209 208 207 206 204 202 201 200 200 201 201 200 203 212 220 222 219 215 212 211 211 214 220 226 230 233 237 241 246 249 252 255 259 261 264 267 268 269 268 267 265
179 181 183 186 189 190 188 184 182 181 182 184 186 190 193 196 200 202 202 204 208 212 215 216 215 214 211 208 205 204 202 201 199 197 196 196 198 199 200 201 204 212 219 219 215 211 211 212 216 220 225 229 231 232 236 241 246 250 254 258 262 265 267 268 269 269 268 267 265
177 180 182 185 188 188 187 183 180 178 179 183 187 192 196 200 204 206 207 208 211 213 215 216 214 212 208 203 200 197 195 194 194 194 195 197 201 202 204 205 206 211 216 216 213 212 215 219 222 225 228 230 231 233 237 243 249 253 257 260 264 267 268 269 269 269 268 268 267
171 174 176 179 183 185 184 182 178 176 178 183 188 194 199 203 206 208 208 208 208 209 211 211 209 205 199 192 189 189 189 189 192 194 195 198 202 203 204 205 205 208 211 215 217 220 223 226 227 229 230 232 234 236 240 246 252 256 259 262 264 266 269 270 270 270 269 270 270
Height
803 803 805 806 808 809 810 812 813 814 815 816 817 818 819 820 821 822 824 824 826 827 828 829 829 830 831 832 833 834 835 836 836 837 839 840 842 843 844 845 845 846 847 847 848 849 849 850 850 851 852 853 853 854 855 855 856 857 858 858 859 859 860 860 860 861 861 861 861
801 802 803 804 806 807 808 810 811 812 813 814 815 816 817 818 819 820 821 822 824 825 826 827 828 829 829 830 831 832 833 834 834 835 837 839 840 842 843 844 845 845 846 847 848 848 849 849 850 851 851 852 853 853 854 855 855 856 857 857 858 859 859 859 860 860 861 861 861
799 800 801 803 804 805 806 808 808 810 811 812 813 814 815 816 817 818 819 820 822 823 824 825 826 827 828 829 830 831 832 832 833 834 835 837 839 840 841 843 844 844 845 846 847 848 848 849 849 850 851 851 852 853 853 854 855 855 856 856 857 858 858 859 859 859 860 860 860
797 798 799 800 801 803 804 805 806 807 808 810 811 813 813 814 815 816 817 818 820 821 822 824 825 826 827 828 829 829 830 830 831 833 834 836 837 838 839 841 842 844 844 845 846 847 848 848 849 849 850 851 851 852 853 853 854 854 855 855 856 856 857 858 858 859 859 859 860
795 796 797 798 799 800 802 803 804 805 807 808 809 811 812 813 814 814 816 817 818 819 820 821 823 824 825 826 827 828 829 829 831 832 833 834 836 837 838 839 840 842 843 844 845 846 847 847 848 849 849 850 850 851 852 852 853 854 854 854 855 855 856 856 857 858 858 858 859
793 794 795 796 797 798 800 801 803 804 805 806 808 809 810 811 812 813 814 815 816 817 818 819 821 822 824 824 825 826 827 829 830 831 833 834 835 836 837 838 839 840 842 843 844 845 846 847 847 848 849 849 850 850 851 851 852 852 853 854 854 854 855 855 856 856 857 857 858
791 793 794 795 796 797 798 799 801 802 804 805 806 807 808 809 810 811 813 813 814 816 817 818 819 820 821 822 824 824 826 827 829 830 832 833 834 835 836 837 838 839 841 842 843 844 845 846 847 847 848 848 849 849 850 850 851 851 852 852 853 854 854 854 855 855 856 856 857
789 791 792 793 794 796 797 798 799 801 803 804 805 805 807 808 810 811 812 813 814 814 815 816 816 817 818 819 821 822 824 825 827 829 830 832 833 835 836 837 838 839 840 841 842 843 844 845 846 846 847 847 848 848 849 849 849 850 851 851 852 853 853 854 854 854 855 855 856
788 789 790 792 793 794 795 797 798 799 801 803 804 805 806 808 810 811 812 813 813 813 814 814 815 815 816 817 819 820 822 824 826 827 829 830 832 833 835 836 837 838 839 840 841 842 843 844 845 845 846 846 847 847 848 848 849 849 850 850 851 852 852 853 853 854 854 854 854
785 787 788 790 791 792 794 795 796 797 799 801 804 806 807 808 809 810 811 812 813 813 813 813 813 814 815 816 817 819 821 823 824 826 827 829 830 831 833 834 835 837 838 839 840 841 842 843 844 844 844 845 846 846 847 847 848 849 849 849 850 851 851 852 852 853 853 853 853
783 785 786 788 789 790 792 794 795 796 798 799 803 805 807 808 808 808 809 811 812 812 812 812 812 812 813 815 816 818 819 821 823 824 826 827 828 829 831 832 833 835 836 837 839 840 841 842 842 843 844 844 845 846 846 847 847 848 849 849 849 850 851 851 851 851 851 852 852
781 783 784 786 787 789 791 792 794 795 797 798 800 803 805 806 806 807 808 809 810 811 811 811 811 811 812 813 815 817 818 820 822 823 825 826 827 828 829 830 832 833 834 835 837 838 839 840 841 842 842 843 844 845 846 846 847 848 848 849 849 849 849 850 850 850 850 850 850
779 781 783 784 786 788 789 790 792 794 795 797 798 799 801 803 804 805 807 808 809 810 811 811 810 811 811 813 814 816 817 819 821 822 824 825 826 827 828 829 830 831 832 834 835 836 837 839 839 840 841 842 844 844 845 846 847 847 848 848 849 849 849 849 848 848 849 849 849
777 779 781 782 784 786 787 788 790 792 793 795 796 797 798 799 801 803 806 808 809 810 810 810 810 810 811 812 813 815 816 818 819 821 822 823 824 825 827 828 829 830 831 832 833 834 836 837 839 839 841 842 843 844 845 846 846 847 847 848 848 848 848 847 847 847 847 847 847
775 777 778 780 782 783 785 787 788 790 791 792 793 794 796 797 799 801 804 807 808 809 809 809 810 810 811 812 813 814 816 817 818 820 821 822 823 824 825 827 828 829 830 831 832 834 835 836 838 839 840 841 842 844 845 845 846 846 847 847 847 847 847 846 846 846 846 846 846
773 775 777 778 780 781 783 784 786 787 788 790 791 792 794 795 797 799 802 805 807 807 808 808 809 810 811 812 813 814 815 817 818 819 820 821 823 824 825 826 827 828 829 830 832 833 834 836 837 838 839 841 842 844 844 845 845 846 846 846 846 846 846 845 845 845 845 845 845
771 773 774 776 778 779 780 782 783 785 786 787 788 790 792 793 794 796 799 802 804 805 806 807 808 809 810 811 812 813 814 816 817 818 819 821 822 823 824 825 827 828 829 830 831 833 834 835 836 838 839 840 842 843 844 844 844 844 844 845 845 845 844 844 844 844 844 844 843
768 770 772 773 775 777 778 780 781 783 784 786 787 788 790 791 792 794 796 799 801 803 804 806 807 808 809 810 811 812 813 814 816 817 818 820 821 822 824 825 826 827 828 829 831 832 833 834 835 836 838 840 841 842 842 842 842 843 843 844 844 844 843 843 843 843 842 842 842
766 768 770 771 773 774 776 778 780 781 783 784 786 787 788 790 791 792 794 796 798 801 803 804 805 807 808 809 810 811 813 813 815 816 818 819 820 822 823 824 825 826 828 829 830 831 832 833 834 835 837 839 840 841 841 840 841 841 842 842 842 842 842 841 841 841 841 840 840
764 766 768 769 771 773 775 776 778 780 782 783 784 786 787 788 789 791 792 794 796 798 801 802 803 805 806 808 809 810 812 813 814 815 817 818 819 821 822 823 824 825 827 828 829 829 830 831 832 834 836 838 839 839 839 839 839 840 840 840 840 840 840 840 839 839 839 839 839
763 764 766 768 770 772 773 775 777 779 780 782 783 784 786 787 788 789 791 793 794 797 798 800 801 803 805 806 808 809 810 811 813 814 816 817 818 820 821 822 823 824 825 826 827 828 828 829 830 832 834 836 837 837 837 837 838 838 839 839 839 838 838 838 838 838 837 837 837
761 763 764 766 768 770 772 774 776 777 779 780 781 783 784 786 787 788 790 791 793 795 797 798 799 801 802 804 805 807 808 809 811 812 814 816 817 818 820 821 822 823 824 824 825 825 825 827 829 831 833 834 834 834 835 836 836 837 837 837 837 836 836 836 836 836 835 835 835
760 762 763 765 767 768 770 772 774 775 777 778 780 781 783 784 786 787 789 790 792 793 795 796 797 798 800 801 803 804 805 806 808 809 811 813 815 817 818 819 820 821 822 821 821 822 823 825 827 829 830 832 832 833 833 834 835 835 835 835 835 835 834 834 834 834 834 833 833
758 760 762 763 765 767 768 770 772 773 775 777 778 780 781 783 784 786 788 789 790 792 793 794 795 796 797 798 800 801 802 803 805 806 808 810 813 815 817 818 818 818 818 818 818 819 821 823 825 827 828 829 830 831 832 833 833 834 834 833 833 833 833 833 832 832 832 831 831
757 759 760 762 763 765 766 768 770 771 773 775 777 778 780 781 783 784 786 787 788 789 791 792 793 793 794 796 797 798 799 800 801 803 805 807 809 811 813 814 815 815 814 815 816 817 819 821 823 824 826 827 828 829 830 831 832 832 832 831 831 831 831 831 830 830 830 829 829
756 758 759 760 762 763 764 766 768 770 771 773 775 777 778 780 781 783 784 785 786 787 788 789 790 791 792 793 794 795 796 797 798 798 800 801 803 804 806 808 808 810 811 812 813 815 817 818 820 822 823 824 826 827 829 829 830 830 830 829 829 829 829 829 829 828 828 828 827
755 756 758 759 760 761 763 764 766 768 770 772 773 775 776 778 779 780 781 782 783 785 786 788 788 789 790 791 792 793 793 793 793 794 794 795 796 798 799 801 803 805 807 809 811 813 815 817 818 819 820 822 824 825 827 828 828 828 828 828 827 827 827 827 827 826 826 826 825
753 755 756 758 759 760 762 763 765 767 768 770 772 773 775 776 777 778 780 781 782 784 785 787 788 788 789 791 791 792 791 791 792 792 793 794 795 797 798 800 801 803 805 807 809 811 813 814 816 817 819 820 822 824 825 825 826 826 826 825 825 825 825 825 825 824 824 824 823
752 754 755 757 758 759 760 762 763 765 767 768 770 771 773 774 776 777 778 780 782 783 784 785 786 788 789 791 792 792 792 792 793 794 795 796 797 798 799 800 801 803 804 806 808 809 811 812 813 815 817 818 820 822 823 824 824 824 823 823 823 823 823 823 823 823 822 822 821
751 753 754 756 757 758 759 761 762 763 765 767 768 770 771 773 774 776 777 779 780 781 783 784 786 788 789 790 792 793 793 794 795 796 797 798 799 800 801 801 802 803 804 805 806 808 809 810 812 813 815 817 818 820 821 821 821 821 821 821 821 821 821 821 821 821 820 820 819
750 752 753 755 756 758 759 760 761 762 764 765 767 769 770 772 773 774 776 778 779 781 782 783 785 787 788 790 792 793 794 795 796 797 798 798 799 800 801 802 803 803 803 803 805 806 808 809 810 812 813 815 817 818 818 819 819 819 819 819 819 819 819 819 819 818 818 818 817
749 751 753 754 756 757 758 760 760 761 763 765 767 768 769 771 772 774 776 778 779 781 783 784 786 787 789 790 791 792 793 794 795 796 797 798 799 800 801 802 803 802 802 803 804 805 806 807 809 810 812 814 815 816 817 817 817 817 817 817 817 817 817 817 817 816 816 816 815
748 750 752 753 755 757 758 759 760 762 763 765 767 768 770 772 773 775 777 778 780 781 783 785 786 788 788 790 791 792 793 793 794 795 796 797 798 799 800 801 802 801 801 802 803 804 805 806 808 809 811 813 814 815 815 815 815 815 815 815 815 815 815 815 814 814 814 813 813
748 750 752 753 755 757 758 759 761 763 764 766 768 769 771 772 774 776 777 779 780 782 783 784 786 787 788 789 790 791 792 793 794 795 796 797 798 798 799 800 801 800 800 801 802 803 804 805 807 808 810 812 813 813 814 814 814 814 813 813 813 813 813 813 812 812 812 811 811
748 750 752 754 755 757 758 760 762 763 765 767 768 770 772 773 774 776 777 779 780 782 783 785 786 787 788 789 790 791 792 792 793 794 795 796 797 798 798 799 800 799 799 800 802 803 803 805 806 808 810 811 812 813 813 813 813 812 812 811 811 811 810 810 810 810 809 809 808
748 750 752 753 755 757 759 760 762 763 765 767 768 770 772 773 774 776 778 779 780 782 783 784 786 787 788 788 789 790 791 792 793 793 795 796 797 797 798 798 799 799 799 800 801 802 803 805 806 808 809 811 811 811 811 811 811 810 810 809 809 808 808 808 808 807 807 806 805
748 750 752 753 755 757 758 760 762 763 765 767 768 770 772 773 775 776 777 778 780 781 782 783 785 785 786 787 788 789 790 791 792 793 794 795 796 797 797 798 799 799 799 800 801 802 803 804 806 808 809 809 810 809 809 809 809 808 808 808 807 806 806 806 805 804 804 803 802
748 750 751 753 755 757 758 760 761 763 765 766 768 770 771 773 774 775 777 778 779 780 781 782 783 784 785 786 787 788 789 790 791 792 793 794 795 796 797 798 799 799 799 800 801 802 803 804 806 807 808 808 808 808 808 807 807 807 806 805 805 804 804 803 803 802 801 800 799
748 749 751 753 754 756 758 759 761 763 764 766 768 769 771 772 773 774 776 777 778 779 780 781 782 783 783 785 786 787 788 789 791 792 793 793 794 795 796 797 798 799 799 799 800 802 803 804 805 805 805 805 805 805 805 805 805 804 804 803 803 802 802 801 800 799 798 797 796
748 749 751 753 754 756 758 759 761 763 764 766 768 769 770 772 773 774 775 776 777 778 778 779 780 782 783 784 785 787 788 789 790 791 792 793 794 795 796 796 798 798 799 799 800 801 802 803 803 803 803 803 803 803 804 804 803 803 802 802 801 800 799 799 798 797 796 794 794
748 749 751 753 754 756 758 759 761 763 764 766 767 768 770 771 772 773 774 775 776 777 778 779 780 781 782 783 785 786 788 789 790 791 792 793 793 794 795 796 797 798 798 799 800 801 801 801 801 802 802 802 802 803 803 803 802 801 801 800 799 798 798 796 795 794 793 792 791